FW8525 Weather Reports


time (UTC)temp
C
wind
direction
speed
KPH
gust
KPH
rain 1hr
cm
rain 24hr
cm
rain mn
cm
humidity
%
barometer
mb
20260504201532 24 0 0.0 12.9 0.00 0.00 0.00 38 1012.3
20260504200048 24 0 0.0 0.0 0.00 0.00 0.00 38 1012.4
20260504194532 23 0 0.0 0.0 0.00 0.00 0.00 40 1012.5
20260504193032 23 0 0.0 0.0 0.00 0.00 0.00 38 1012.5
20260504191535 23 0 0.0 0.0 0.00 0.00 0.00 38 1012.7
20260504190033 23 0 0.0 0.0 0.00 0.00 0.00 37 1013.0
20260504184537 23 0 0.0 0.0 0.00 0.00 0.00 40 1013.0
20260504183037 23 0 0.0 0.0 0.00 0.00 0.00 38 1013.1
20260504181534 22 0 0.0 0.0 0.00 0.00 0.00 40 1013.2
20260504180033 22 0 0.0 0.0 0.00 0.00 0.00 41 1013.3
20260504174532 22 0 0.0 0.0 0.00 0.00 0.00 37 1013.5
20260504173032 22 0 0.0 0.0 0.00 0.00 0.00 40 1013.7
20260504171535 22 0 0.0 16.1 0.00 0.00 0.00 42 1014.0
20260504081540 8 0 0.0 0.0 0.00 0.00 0.00 80 1017.2
20260504044536 7 0 0.0 0.0 0.00 0.00 0.00 70 1017.1
20260504043049 6 0 0.0 0.0 0.00 0.00 0.00 70 1017.3
20260504041536 6 0 0.0 0.0 0.00 0.00 0.00 69 1017.0
20260504040036 6 0 0.0 0.0 0.00 0.00 0.00 68 1016.8
20260504034539 6 0 0.0 0.0 0.00 0.00 0.00 69 1016.8
20260504033037 6 0 0.0 0.0 0.00 0.00 0.00 69 1016.6
20260504031547 6 0 0.0 0.0 0.00 0.00 0.00 70 1016.6
20260504030050 6 0 0.0 0.0 0.00 0.00 0.00 69 1016.6
20260504024538 6 0 0.0 0.0 0.00 0.00 0.00 69 1016.5
20260504023034 6 0 0.0 0.0 0.00 0.00 0.00 68 1016.6
20260504021540 6 0 0.0 0.0 0.00 0.00 0.00 68 1016.5
20260504020038 6 0 0.0 0.0 0.00 0.00 0.00 67 1016.4
20260504014537 7 0 0.0 0.0 0.00 0.00 0.00 66 1016.3
20260504013036 7 0 0.0 0.0 0.00 0.00 0.00 64 1016.3
20260504011535 8 0 0.0 0.0 0.00 0.00 0.00 61 1016.1
20260504010033 9 0 0.0 0.0 0.00 0.00 0.00 58 1015.9
20260504004543 10 0 0.0 0.0 0.00 0.00 0.00 56 1015.8
20260504003037 10 0 0.0 0.0 0.00 0.00 0.00 54 1015.5
20260504001538 11 0 0.0 0.0 0.00 0.00 0.00 50 1015.3
20260504000037 12 0 0.0 0.0 0.00 0.00 0.00 48 1015.3
20260503234536 13 0 0.0 0.0 0.00 0.00 0.00 44 1015.3
20260503233034 14 0 0.0 0.0 0.00 0.00 0.00 42 1015.3
20260503231534 15 0 0.0 0.0 0.00 0.00 0.00 41 1015.2
20260503230053 15 0 0.0 0.0 0.00 0.00 0.00 40 1015.0
20260503224531 15 0 0.0 0.0 0.00 0.00 0.00 40 1015.0
20260503223036 15 0 0.0 22.5 0.00 0.00 0.00 39 1014.9
20260503221541 15 0 0.0 17.7 0.00 0.00 0.00 40 1015.0
20260503220037 15 0 1.6 30.6 0.00 0.00 0.00 39 1015.0
20260503214547 15 0 0.0 22.5 0.00 0.00 0.00 40 1014.8
20260503213040 15 0 0.0 30.6 0.00 0.00 0.00 38 1014.8
20260503211537 15 0 0.0 19.3 0.00 0.00 0.00 39 1014.8
20260503210035 15 0 0.0 17.7 0.00 0.00 0.00 38 1014.7
20260503204544 15 215 0.0 24.1 0.00 0.00 0.00 40 1014.7
20260503203033 15 0 0.0 25.7 0.00 0.00 0.00 39 1014.7